#timestamp,LO_Frequency,Hit,StdDev 
1659283215.0,286046999.7,N
1659283215.9,286046999.7,N
1659283235.7,286047002.6,N
1659283255.6,286047000.5,N
1659283275.4,286047000.5,N
1659283295.3,286047000.4,N
1659283315.1,286046999.8,N
1659283316.0,286046999.8,N
1659283335.8,286047002.1,N
1659283355.7,286047002.2,N
1659283375.5,286046999.7,N
1659283395.3,286047000.5,N
1659283415.2,286046999.8,N
1659283435.0,286047002.7,N
1659283435.9,286047002.7,N
1659283455.8,286047000.2,N
1659283475.6,286047000.5,N
1659283495.4,286047000.0,N
1659283515.3,286047000.6,N
1659283535.1,286047001.6,N
1659283555.8,286047004.4,Y
1659283575.7,286047002.1,P
1659283595.5,286047002.2,P
1659283615.4,286047001.6,P
1659283635.2,286047003.8,Y
1659283655.0,286047000.1,P
1659283655.9,286047000.1,N
1659283675.8,286047004.3,P
1659283695.6,286047002.8,N
1659283715.5,286047001.0,N
1659283735.3,286047000.8,N
1659283755.1,286046998.4,N
1659283775.9,286046998.9,N
1659283795.7,286046999.6,N
1659283815.5,286047000.7,N
1659283835.4,286047002.0,N
1659283855.2,286047002.4,N
1659283875.1,286047000.7,N
1659283876.0,286047000.7,N
1659283895.8,286046998.8,N
1659283915.6,286046996.5,N
1659283935.5,286046997.0,N
1659283955.3,286046997.2,N
1659283975.2,286046996.9,N
1659283995.9,286046998.4,N
1659284015.7,286047000.5,N
1659284035.6,286047002.4,N
1659284055.4,286047001.4,N
1659284075.2,286047003.5,N
1659284095.1,286047003.8,N
1659284096.0,286047003.8,N
1659284115.8,286047004.4,N
1659284135.7,286047001.0,N
1659284155.5,286047000.9,N
1659284175.3,286046999.9,N
1659284195.2,286046998.4,N
1659284215.9,286047000.3,N
1659284235.7,286046998.9,N
1659284255.6,286046996.5,N
1659284275.4,286047000.9,N
1659284295.2,286046998.3,N
1659284315.1,286046998.5,N
1659284316.0,286046998.5,N
1659284335.8,286047000.9,N
1659284355.7,286047000.5,N
1659284375.5,286047002.4,N
1659284395.3,286046998.3,N
1659284415.2,286046998.5,N
1659284435.0,286046999.4,N
1659284435.9,286046999.4,N
1659284455.7,286046997.3,N
1659284475.6,286047001.0,N
1659284495.4,286047000.9,N
1659284515.3,286046998.5,N
1659284535.1,286046999.8,N
1659284536.0,286046999.8,N
1659284555.8,286047001.8,N
1659284575.7,286047001.3,N
1659284595.5,286047001.9,N
1659284615.3,286047001.8,N
1659284635.2,286047003.8,N
1659284655.0,286047003.6,N
1659284655.9,286047003.6,N
1659284675.8,286047003.3,N
1659284695.6,286047003.4,N
1659284715.4,286047003.9,N
1659284735.3,286047002.6,N
1659284755.1,286046999.9,N
1659284775.9,286046999.1,N
1659284795.7,286047000.5,N
1659284815.5,286047001.9,N
1659284835.4,286046998.2,N
1659284855.2,286046996.6,N
1659284875.0,286046997.2,N
1659284875.9,286046997.2,N
1659284895.8,286046996.8,N
1659284915.6,286046997.1,N
1659284935.5,286046997.4,N
1659284955.3,286047001.1,N
1659284975.1,286047001.6,N
1659284995.9,286047002.7,N
1659285015.7,286047000.7,N
1659285035.5,286046998.6,N
1659285055.4,286047002.8,N
1659285075.2,286047001.5,N
1659285095.0,286047002.6,N
1659285096.0,286047002.6,N
1659285115.8,286047000.1,N
1659285135.6,286047000.5,N
1659285155.5,286046999.8,N
1659285175.3,286046999.9,N
1659285195.1,286046999.9,N
1659285215.9,286047002.5,N
1659285235.7,286047001.7,N
1659285255.6,286046999.9,N
1659285275.4,286047002.4,N
1659285295.2,286047001.5,N
1659285315.1,286047001.6,N
1659285316.0,286047001.6,N
1659285335.8,286047002.5,N
1659285355.6,286047002.7,N
1659285375.5,286047004.2,N
1659285395.3,286047004.0,N
1659285415.2,286047000.0,N
1659285435.9,286047002.4,N
1659285455.7,286047000.4,N
1659285475.6,286046998.9,N
1659285495.4,286046998.3,N
1659285515.3,286046999.0,N
1659285535.1,286046998.8,N
1659285536.0,286046998.8,N
1659285555.8,286046998.9,N
1659285575.7,286046999.6,N
1659285595.5,286046996.9,N
1659285615.3,286046997.6,N
1659285635.2,286046997.1,N
1659285655.0,286046998.7,N
1659285655.9,286046998.7,N
1659285675.8,286047000.9,N
1659285695.6,286047002.7,N
1659285715.4,286047000.5,N
1659285735.3,286046999.0,N
1659285755.1,286046997.2,N
1659285775.9,286046996.9,N
1659285795.7,286046998.6,N
1659285815.5,286046998.3,N
1659285835.4,286046999.5,N
1659285855.2,286046998.9,N
1659285875.0,286046996.5,N
1659285875.9,286046996.5,N
1659285895.8,286046998.2,N
1659285915.6,286046999.7,N
1659285935.5,286047000.6,N
1659285955.3,286047001.2,N
1659285975.1,286046998.2,N
1659285995.9,286046998.8,N
1659286015.7,286046999.4,N
1659286035.5,286046999.4,N
1659286055.4,286046996.6,N
1659286075.2,286046999.3,N
1659286095.0,286047000.0,N
1659286096.0,286047000.0,N
1659286115.8,286047000.0,N
1659286135.6,286046998.3,N
1659286155.5,286047000.8,N
1659286175.3,286047000.9,N
1659286195.1,286046998.9,N
1659286215.9,286046999.1,N
1659286235.7,286046996.8,N
1659286255.5,286046998.2,N
1659286275.4,286047000.5,N
1659286295.2,286046998.6,N
1659286315.1,286046999.7,N
1659286316.0,286046999.7,N
1659286335.8,286047004.3,Y
1659286355.6,286047006.0,P
1659286375.5,286047005.6,N
1659286395.3,286047004.6,N
1659286415.2,286047005.8,N
1659286435.9,286047004.4,N
1659286455.7,286047002.3,N
1659286475.6,286046999.8,N
1659286495.4,286047002.2,N
1659286515.2,286047001.9,N
1659286535.1,286047001.6,N
1659286536.0,286047001.6,N
1659286555.8,286047002.5,N
1659286575.7,286047005.9,N
1659286595.5,286047003.5,N
1659286615.3,286047002.7,N
1659286635.2,286047002.8,N
1659286655.0,286047000.2,N
1659286655.9,286047000.2,N
1659286675.7,286047003.9,N
1659286695.6,286047001.3,N
1659286715.4,286047003.7,N
1659286735.3,286047003.1,N
1659286755.1,286047001.8,N
1659286775.8,286047002.0,N
1659286795.7,286047002.7,N
